{"data":{"norad_id":66030,"epoch":"2026-05-25T04:00:03.998880Z","epoch_age_seconds":74376,"freshness":"FRESH","line1":"1 66030U 25232AB  26145.16671295 -.00003882  00000+0 -11904-3 0  9994","line2":"2 66030  53.1577 108.8477 0001391  90.0996 212.6255 15.30193934  5856","mean_motion":15.30193934,"eccentricity":0.0001391,"inclination_deg":53.1577,"raan_deg":108.8477,"arg_perigee_deg":90.0996,"mean_anomaly_deg":212.6255,"bstar":-0.00011904,"rev_number":585,"period_min":94.105718759175,"perigee_km":474.27987766951,"apogee_km":476.18648525399,"semimajor_km":6853.3701814618,"source":"CELESTRAK","updated_at":"2026-05-25T13:38:21.018882Z"}}